Temp
24 24 24 23 21 18 21 25 24 25 25 25 25 25 25 25 25 22 23 24 23 23 21 21 21 20 20 20 20 20 20 20 19 19 19 19 19 19 19 19 18 18 17 17 18 18 19 18 19
24 24 24 17 19 20 21 23 25 26 26 25 25 25 25 25 24 22 22 23 23 23 21 20 20 20 20 20 20 20 20 20 19 19 19 19 19 19 18 19 18 18 17 17 17 19 18 19 18
24 23 19 18 17 20 22 24 25 25 25 25 25 25 25 26 23 23 24 23 23 22 22 21 20 20 20 20 20 20 19 19 19 19 18 19 19 19 18 18 18 17 17 17 18 18 18 18 19
23 21 17 20 24 25 24 24 24 25 25 25 24 25 24 25 25 25 24 23 23 22 22 21 21 20 20 19 19 19 19 19 19 19 18 18 18 18 18 18 17 16 16 16 16 17 18 18 19
22 16 18 21 22 25 24 24 26 26 25 25 24 26 24 23 24 24 24 23 23 22 22 21 21 20 19 19 19 19 19 19 19 19 19 18 18 18 18 17 17 16 15 15 15 17 18 18 19
19 16 19 21 23 24 24 25 25 25 23 24 25 24 24 23 24 24 23 23 22 22 21 21 21 20 18 18 18 19 19 19 19 19 18 18 18 18 17 17 16 15 15 14 15 17 18 18 18
20 17 20 22 23 25 25 25 24 24 24 25 24 25 24 22 24 24 23 23 22 22 21 20 20 20 19 18 18 19 19 19 19 18 18 18 18 17 17 17 16 15 14 14 14 16 18 18 18
16 17 22 21 21 25 23 24 25 25 25 24 24 23 24 24 24 23 22 22 22 22 21 21 20 20 19 19 18 18 18 18 18 18 18 18 17 17 17 17 17 15 14 14 14 16 18 17 17
18 17 19 23 23 23 22 23 23 22 24 22 24 24 24 24 23 22 22 22 22 21 21 21 21 20 19 19 18 18 18 18 18 18 18 17 17 17 16 17 16 16 14 13 14 15 17 17 17
18 16 20 22 23 23 23 23 22 22 20 21 21 22 24 23 22 21 20 21 21 22 22 21 21 20 19 18 18 18 18 18 18 18 17 17 17 16 16 16 16 16 14 14 14 14 16 16 16
19 19 20 22 22 22 22 21 21 22 21 20 21 20 21 21 20 20 21 21 22 23 22 22 21 21 20 19 19 18 18 18 18 18 18 17 17 16 16 16 16 15 14 13 13 13 16 16 16
21 20 21 22 22 21 22 22 20 21 21 21 19 18 19 18 18 18 19 21 20 20 21 22 22 21 20 20 19 19 17 17 17 17 17 17 17 16 16 15 15 15 15 14 13 14 15 15 15
20 21 21 21 19 19 21 20 20 19 19 18 18 19 18 17 16 15 15 16 17 19 20 21 20 21 20 20 19 18 18 17 17 17 17 17 17 16 16 15 15 15 14 14 14 14 14 15 15
20 20 19 19 19 20 20 20 20 20 20 19 20 17 14 12 12 12 12 12 14 15 18 20 21 21 20 20 19 18 18 18 17 17 17 17 17 16 16 15 14 14 14 14 14 14 14 14 14
20 20 18 19 20 20 18 21 19 19 18 18 18 15 12 11 10 9 10 10 11 13 15 17 20 19 19 20 19 18 18 17 17 17 17 17 17 17 16 16 15 14 14 14 13 12 12 13 13
20 19 18 21 21 21 21 19 20 20 19 19 15 11 10 9 9 8 9 9 10 12 14 15 17 19 18 18 18 18 17 17 17 17 16 16 16 17 16 16 15 15 14 14 13 12 12 12 12
16 17 17 19 20 21 20 18 19 19 18 16 14 10 10 9 8 7 7 8 9 10 12 14 15 17 17 17 17 17 17 16 16 16 17 16 16 16 16 16 15 15 14 13 13 12 12 12 12
17 17 17 18 20 20 18 17 17 17 17 16 10 9 9 8 7 7 7 7 8 9 10 11 12 14 15 16 16 16 16 16 16 16 16 16 16 15 15 15 15 14 14 13 12 12 12 11 12
18 18 17 17 18 18 17 17 17 17 17 13 10 9 9 8 7 7 6 6 7 7 8 9 11 11 13 14 14 14 13 14 14 14 14 14 14 14 14 14 14 13 13 13 13 12 11 11 11
16 16 16 16 17 18 17 17 17 16 14 12 10 9 8 7 6 6 6 6 5 6 6 7 8 9 11 11 11 11 11 11 11 11 12 12 12 12 13 13 13 12 12 12 11 11 11 10 10
16 16 17 17 16 17 16 15 16 12 11 11 9 8 7 6 6 5 5 5 5 5 5 5 6 7 8 10 11 12 11 11 11 10 10 10 10 10 10 10 10 11 11 11 11 10 10 10 10
16 16 16 16 16 15 16 13 15 15 11 9 8 6 6 5 5 5 5 4 4 5 6 6 6 6 6 7 7 7 6 5 5 7 8 9 9 9 9 9 8 8 8 8 9 10 9 9 9
17 16 17 17 16 15 14 13 13 12 11 9 7 6 6 5 5 4 4 4 5 5 5 5 6 6 6 6 6 5 5 4 5 6 7 7 7 8 8 8 8 8 7 7 7 8 8 9 8
16 17 13 12 12 12 13 13 14 14 13 9 7 6 6 5 4 5 5 5 5 5 5 5 5 5 5 5 5 5 5 4 4 4 4 4 5 5 6 6 6 7 7 6 6 6 6 7 8
15 14 13 12 10 12 13 12 14 10 12 10 7 6 5 4 4 3 4 4 4 4 5 5 5 4 5 5 5 4 4 3 3 3 3 3 3 3 3 4 5 5 5 5 5 5 5 5 6
14 14 12 11 11 12 12 13 13 8 7 7 6 5 5 5 4 4 4 4 4 4 4 4 4 3 4 4 4 4 4 3 3 2 3 2 2 2 3 3 3 3 4 4 4 4 4 4 4
15 14 14 12 3 8 12 11 10 8 7 6 6 6 5 5 4 4 4 4 4 4 4 4 4 4 3 3 3 3 2 2 2 2 2 2 2 2 2 3 3 3 3 3 3 3 3 3 3
14 14 12 10 9 9 11 11 12 8 7 7 6 6 5 5 4 4 4 4 4 4 4 4 4 4 3 3 3 3 2 2 2 2 1 1 1 2 2 2 2 2 2 3 3 3 3 3 3
13 13 13 12 9 8 7 11 12 10 8 7 7 6 5 5 4 3 4 4 4 4 4 4 3 4 4 4 3 3 2 2 2 2 1 1 1 1 1 0 1 1 1 1 1 2 2 2 2
14 12 12 9 10 8 9 13 11 10 8 7 7 6 5 5 4 3 4 4 4 4 3 3 3 3 2 2 2 2 1 1 1 1 1 1 0 1 0 0 0 0 0 0 -0 -0 1 1 1
Height
808 807 805 806 834 844 848 831 820 819 817 807 804 809 813 811 817 836 804 805 806 808 811 814 817 820 821 823 826 827 829 831 833 834 835 837 838 839 840 841 841 842 842 842 843 842 843 843 843
808 807 806 817 848 860 854 828 822 815 808 805 805 807 810 814 805 804 805 805 806 808 811 814 816 818 820 822 824 827 829 830 832 834 836 838 839 840 841 842 842 842 843 843 844 843 844 843 844
809 808 816 834 857 858 849 824 818 812 807 807 809 805 807 809 804 803 802 804 805 807 810 812 816 818 821 822 824 826 828 830 832 834 836 838 840 841 841 842 843 843 843 844 844 844 844 844 844
809 810 822 842 837 826 826 820 815 814 809 806 808 813 806 803 802 801 802 803 804 807 809 811 814 817 820 823 825 827 828 830 832 834 836 837 839 840 841 842 843 844 844 844 844 844 844 844 843
811 821 843 843 839 823 816 812 808 813 812 810 809 813 811 803 802 802 803 803 803 806 808 811 813 816 819 822 824 826 828 830 832 834 836 837 838 839 841 842 843 844 844 844 844 844 843 843 843
823 830 852 853 836 824 816 810 809 813 815 812 812 813 810 804 803 803 803 804 805 806 808 810 812 815 817 820 822 824 826 828 831 833 835 837 838 839 840 841 842 843 844 844 843 844 843 842 843
827 842 848 841 837 824 817 808 813 813 815 813 807 815 808 804 803 803 804 805 806 807 809 811 813 814 816 818 821 823 824 827 828 831 833 835 836 838 839 841 841 842 842 843 843 843 843 843 843
827 837 837 838 841 829 818 813 809 810 814 806 805 818 813 803 803 804 805 806 806 806 807 808 810 812 813 815 817 820 823 825 828 830 831 833 834 835 837 838 839 840 841 841 841 842 842 843 843
822 848 852 835 831 828 819 820 810 809 811 810 804 805 804 802 803 804 804 803 803 804 804 805 807 809 812 813 815 818 820 823 825 828 830 832 833 833 835 836 837 838 839 840 841 841 841 842 843
833 852 840 824 822 825 820 820 817 816 820 810 808 804 803 803 803 802 801 799 799 799 800 801 804 806 809 811 813 816 818 820 822 825 827 830 831 832 833 835 837 837 838 839 839 840 841 842 842
831 842 829 821 819 819 819 820 815 816 818 812 808 804 801 802 801 799 796 795 794 795 796 797 798 800 803 805 808 813 816 818 820 823 825 828 829 831 833 834 835 836 837 838 839 839 840 840 841
831 825 822 817 815 817 819 815 818 816 809 802 802 801 801 800 800 801 798 795 796 797 796 796 795 797 798 801 803 805 810 814 817 819 822 825 826 828 830 832 834 835 835 836 837 837 839 839 840
828 825 820 818 818 818 814 817 818 813 804 801 800 799 801 800 800 802 801 797 794 792 791 791 795 795 795 797 800 802 805 807 811 814 818 821 823 825 827 829 831 833 835 835 836 836 837 838 838
825 824 823 818 815 815 816 816 814 804 801 799 798 804 805 806 806 802 798 797 795 793 789 786 787 790 793 794 796 799 802 805 808 810 814 817 820 822 825 827 830 831 832 834 835 836 837 837 837
823 830 826 817 813 815 813 816 818 802 802 801 805 808 810 810 809 808 807 803 800 795 792 786 784 786 790 792 794 797 800 803 806 809 812 814 817 819 822 824 825 828 831 833 834 835 836 836 836
830 832 839 814 811 810 813 830 808 799 800 801 810 813 814 816 815 813 810 807 802 798 793 789 785 785 787 792 795 798 800 803 805 808 811 813 815 816 818 820 821 825 827 829 831 832 834 835 835
840 845 842 828 811 812 816 825 808 798 802 807 811 818 819 820 818 817 814 809 805 801 796 792 788 787 788 791 795 799 802 804 806 807 809 811 813 814 815 817 819 821 823 825 827 829 830 832 833
842 843 837 833 817 816 821 824 814 802 802 808 817 822 822 823 824 822 818 813 809 805 801 797 794 791 791 793 796 800 802 805 806 808 808 809 810 812 813 815 817 818 820 823 825 825 826 827 830
826 831 836 829 819 822 821 821 810 803 804 812 821 824 826 826 827 825 822 817 813 809 805 802 798 798 796 797 799 802 804 806 807 807 808 809 810 810 812 814 815 817 819 819 822 824 825 825 827
832 834 836 828 819 818 820 819 807 807 813 818 824 830 833 833 831 829 826 821 817 815 811 809 807 805 804 804 806 808 809 809 809 809 808 810 810 811 812 813 814 816 818 819 821 822 823 824 826
829 832 830 829 822 819 820 823 811 821 823 826 832 834 836 837 837 835 831 826 822 819 819 818 816 813 812 811 811 811 811 812 810 811 811 811 811 812 813 813 814 816 816 818 820 822 822 821 822
831 819 821 824 830 839 823 845 820 814 828 833 838 841 841 840 840 840 837 833 829 827 824 822 822 820 819 817 816 817 819 820 821 820 818 815 814 814 814 814 815 816 817 818 820 820 820 821 821
820 815 817 819 828 832 833 843 824 822 828 839 842 843 844 843 842 840 839 837 836 833 830 827 826 824 825 824 823 823 825 827 825 822 819 818 818 816 815 815 814 816 817 818 819 819 818 819 819
813 818 830 839 842 851 832 835 824 816 815 834 840 842 844 846 846 844 842 838 837 835 834 831 829 830 829 829 828 827 828 830 829 826 824 822 821 820 818 816 814 814 815 815 816 817 817 817 816
817 830 847 853 862 843 829 836 817 825 817 822 838 844 846 845 843 843 842 842 840 837 835 833 832 832 834 832 832 830 831 833 834 833 829 826 825 823 823 820 815 814 814 813 812 813 813 814 814
821 825 845 856 857 841 833 825 814 836 835 835 839 841 843 844 842 841 840 840 841 840 839 838 838 839 837 835 838 837 834 837 837 838 834 830 829 828 826 825 823 817 813 811 810 809 809 809 810
815 824 818 836 896 869 830 825 833 838 838 840 843 844 843 841 842 841 842 842 843 842 841 842 842 841 840 840 837 839 841 837 840 841 837 833 831 831 830 827 826 821 816 811 809 807 807 806 805
809 813 830 845 860 868 835 822 814 835 838 838 840 840 840 838 839 841 841 843 844 842 842 842 843 843 843 841 839 842 841 838 839 841 838 836 834 830 831 827 824 823 819 813 809 807 805 802 801
815 816 816 823 840 857 863 821 803 814 824 830 833 834 835 835 836 838 840 841 841 842 843 844 844 842 842 841 841 841 839 838 840 839 839 836 833 831 828 824 821 820 817 812 809 807 803 801 797
803 808 811 834 834 844 833 803 805 811 817 825 827 828 832 832 834 836 838 840 841 843 843 843 843 842 842 842 842 842 841 840 840 839 837 834 831 828 824 819 818 816 813 808 804 803 802 800 797
Wind_Speed
8 8 6 4 4 5 2 2 1 1 2 2 1 2 1 1 2 3 2 15 7 17 26 28 27 26 24 22 19 16 13 12 11 11 12 12 12 12 9 6 4 4 4 4 4 3 3 6 7
8 6 3 2 5 4 4 4 1 2 3 2 1 2 2 0 2 2 7 17 8 17 24 29 27 27 26 23 20 18 16 14 13 12 11 10 10 12 10 8 6 4 3 4 3 3 4 5 5
6 4 3 4 4 4 3 3 2 2 1 1 2 0 1 2 2 8 3 15 12 21 22 29 28 27 25 23 21 19 17 15 14 13 13 11 11 10 10 10 9 5 4 4 3 2 2 2 3
6 6 4 4 1 2 6 5 4 2 2 2 3 1 3 1 2 5 10 12 14 21 22 25 28 27 25 23 21 20 19 17 15 14 15 15 14 13 11 10 7 4 5 5 4 4 3 3 3
4 3 4 3 3 3 1 3 2 2 1 1 1 1 4 3 4 6 10 12 15 20 20 22 28 27 24 23 21 20 19 18 16 17 14 14 13 12 12 10 9 7 7 6 6 5 5 4 3
4 3 4 0 4 3 3 2 2 2 2 3 3 3 4 2 4 6 9 10 13 16 19 19 24 26 25 25 23 21 21 20 18 17 16 16 15 13 11 9 10 9 8 7 7 7 5 2 4
5 4 3 3 3 2 3 1 3 2 2 1 2 2 3 5 8 8 7 7 11 14 16 18 20 25 25 24 24 22 21 21 21 20 19 18 17 14 12 9 9 9 8 8 8 7 4 5 6
4 4 1 2 3 3 6 6 0 2 2 3 4 2 4 3 8 8 8 8 10 15 18 19 21 23 26 26 25 24 23 22 21 20 20 20 19 17 15 11 9 11 11 10 10 8 7 7 7
3 4 1 3 2 3 4 6 6 3 2 3 3 3 4 6 10 8 9 11 14 17 21 22 22 24 26 27 26 24 24 23 22 21 20 22 21 19 17 14 11 12 12 11 10 9 8 8 8
4 3 6 3 2 2 3 0 4 4 7 6 4 4 3 3 10 11 13 16 17 20 22 25 25 24 25 27 28 28 27 26 25 23 22 24 22 21 21 17 14 14 14 14 12 10 10 9 10
3 4 3 3 4 3 3 5 2 2 5 8 11 4 5 5 11 14 20 22 23 22 22 25 27 27 26 27 28 31 30 28 27 25 24 24 24 23 22 19 16 15 15 16 15 14 13 12 11
1 6 5 4 1 3 3 4 7 5 10 5 9 7 5 9 9 8 13 19 18 19 22 25 28 28 28 27 27 27 34 32 31 29 27 26 28 26 25 22 19 18 19 19 18 17 14 15 13
4 4 3 6 9 5 3 8 5 9 11 9 9 6 7 6 12 15 17 16 13 8 10 17 27 30 30 28 27 26 28 31 30 30 30 27 29 29 27 24 22 21 21 21 21 19 17 16 14
0 3 6 7 8 5 5 3 5 9 0 11 5 10 9 10 15 17 24 22 20 18 16 9 16 28 32 30 28 28 27 26 25 24 27 28 29 29 27 26 23 23 22 22 22 21 20 18 16
2 5 7 7 3 4 5 2 6 11 6 9 7 8 9 12 19 18 19 20 21 18 18 14 7 16 29 31 29 28 27 25 25 25 24 28 28 28 30 30 29 26 23 22 22 21 21 20 19
2 2 3 4 2 1 3 8 8 9 6 7 8 8 10 12 16 20 21 20 20 18 20 20 10 4 14 24 26 25 23 21 21 21 23 26 28 28 27 32 32 28 26 24 24 23 23 21 20
3 3 4 8 4 2 2 6 8 10 6 8 7 7 8 9 17 22 24 23 23 22 22 23 21 10 2 10 15 16 16 15 15 16 18 20 23 24 27 28 28 28 27 26 25 25 24 24 22
5 4 5 6 3 2 6 9 9 15 5 5 9 7 9 11 11 17 24 26 26 25 25 27 27 23 15 7 3 3 6 8 10 11 14 15 18 20 23 24 25 26 25 25 26 28 27 26 23
3 4 5 4 7 2 8 5 13 9 7 7 7 8 9 11 12 18 23 29 30 32 32 32 31 30 24 19 11 11 13 8 3 4 5 6 9 12 17 20 22 22 24 26 28 29 28 26 21
4 5 6 6 5 1 7 9 12 6 5 6 9 8 9 8 9 16 21 29 33 34 35 35 33 30 27 23 19 14 12 20 21 16 14 10 5 7 14 15 17 21 23 25 27 29 27 24 22
5 5 5 7 5 3 4 6 7 5 9 12 10 10 8 8 8 9 17 24 30 34 35 35 34 33 29 24 18 14 13 17 20 20 18 19 15 11 9 11 13 16 20 23 25 28 29 26 25
5 6 6 4 3 3 3 5 6 3 6 8 7 7 6 7 6 9 15 22 28 29 31 33 35 36 34 29 28 27 25 20 18 18 17 15 14 13 11 11 14 14 13 17 22 26 30 30 26
7 4 3 1 2 1 3 0 6 6 4 5 5 6 6 6 6 7 13 20 23 27 28 30 31 33 32 33 33 31 29 24 22 20 18 17 15 14 12 11 10 11 15 16 17 22 26 29 31
4 4 5 4 3 2 6 6 5 4 5 7 6 6 6 6 5 10 15 18 21 22 25 27 29 30 29 30 30 30 29 28 29 29 30 27 23 21 19 15 14 12 13 15 16 18 22 27 30
5 5 2 3 2 5 5 3 6 7 2 13 13 8 7 6 6 6 9 14 17 21 21 23 24 26 25 26 27 27 27 28 28 28 27 29 29 29 28 25 20 16 15 16 16 16 17 21 26
5 7 5 6 3 4 5 5 3 4 7 11 8 8 7 6 5 5 8 11 13 16 18 20 22 22 23 24 24 24 24 25 25 24 25 26 26 26 27 26 25 22 19 17 16 17 18 17 20
4 4 2 5 2 3 4 1 3 3 5 6 7 6 7 7 5 6 8 10 11 13 15 16 16 18 18 18 19 20 19 20 20 21 22 23 23 24 24 24 26 26 25 22 20 18 18 19 21
4 5 3 2 2 5 5 5 5 8 9 7 7 7 7 6 7 5 8 10 10 9 10 10 12 13 13 14 15 14 16 18 19 21 22 23 23 22 24 25 25 25 24 25 25 24 21 20 21
2 2 2 3 5 5 2 6 3 9 12 13 10 10 9 9 7 6 11 11 10 8 7 7 8 9 10 11 12 14 16 17 17 19 20 22 24 25 25 28 28 28 29 26 26 26 28 28 26
3 6 6 4 5 3 3 11 2 8 12 10 10 10 9 5 7 8 13 12 11 10 9 6 5 4 6 6 7 9 12 15 18 20 22 24 26 27 28 29 29 30 32 32 32 32 29 29 31
Wind_Direction
329 332 325 35 58 64 329 285 114 34 5 231 239 100 172 194 151 211 158 167 186 183 186 187 184 181 180 183 185 181 177 175 169 165 162 162 159 158 148 158 155 148 141 131 134 131 122 120 113
349 360 34 79 83 75 286 278 132 214 214 177 29 64 42 70 203 172 142 188 196 185 187 190 190 188 188 189 188 187 185 184 180 176 173 166 162 163 163 185 176 196 174 135 150 136 136 130 131
348 358 76 88 109 157 177 234 218 313 240 114 44 37 174 222 350 171 192 186 190 188 189 195 194 195 195 194 194 194 192 188 186 183 175 165 170 180 187 187 184 187 200 178 179 187 195 184 170
358 17 30 79 194 240 172 217 237 132 352 11 140 3 316 351 202 186 160 182 189 192 194 199 199 199 200 201 201 197 193 193 193 186 183 184 189 197 199 200 191 199 192 197 209 235 242 242 213
43 57 51 45 284 280 247 191 106 48 284 299 359 282 299 349 120 152 165 186 191 189 199 201 202 202 200 203 203 201 200 198 198 195 202 200 204 205 203 203 195 205 205 211 222 243 259 256 213
39 91 61 101 286 307 301 279 86 62 30 325 10 346 279 245 189 180 178 188 199 199 197 203 206 206 203 206 206 206 205 202 198 204 207 211 213 210 212 218 223 205 207 205 220 248 261 226 153
103 77 184 222 258 289 237 332 112 176 87 234 182 280 281 260 227 202 188 187 195 207 208 208 210 213 214 213 215 213 210 206 204 207 212 216 218 220 222 229 218 199 197 199 220 238 223 173 158
102 92 20 283 316 338 332 337 341 354 328 324 158 231 295 267 202 198 200 202 203 210 215 219 215 214 216 217 218 218 217 215 214 216 218 219 223 225 229 233 245 205 206 201 224 228 199 177 168
86 62 216 232 40 294 338 16 324 311 12 327 282 171 264 310 189 200 207 214 213 216 221 219 222 221 218 221 219 224 224 225 225 222 223 222 220 224 232 236 244 234 208 206 219 215 199 182 181
87 115 225 196 167 287 292 346 302 356 342 294 270 292 285 279 200 217 234 234 224 221 223 222 224 224 225 225 224 220 223 224 226 228 223 217 224 230 232 238 247 240 214 212 214 209 204 191 192
156 191 229 230 200 210 250 293 236 24 304 241 279 269 294 206 235 243 253 255 247 238 230 226 225 226 226 226 228 225 223 224 226 229 226 223 228 231 227 236 237 230 223 220 218 214 204 198 198
155 248 231 273 328 339 279 320 308 208 243 223 271 280 275 305 301 312 299 295 292 280 261 237 229 228 229 230 229 228 223 226 228 226 227 226 229 228 230 233 240 238 230 227 225 223 214 210 212
188 259 275 279 290 250 248 246 232 266 262 292 287 336 12 18 32 37 41 38 32 1 294 266 241 232 231 229 232 229 226 229 231 232 227 226 233 230 233 238 239 240 235 232 231 230 225 220 219
306 272 273 275 267 267 249 309 128 275 309 308 325 27 60 47 28 23 22 18 19 14 6 306 246 234 232 230 232 231 230 233 234 236 228 226 236 235 236 240 240 238 239 240 239 236 233 230 228
316 325 320 276 261 235 162 311 229 249 323 286 3 70 67 47 41 30 22 18 10 13 15 13 261 238 233 232 233 232 233 233 234 234 232 228 232 242 243 241 238 243 243 242 241 237 236 234 231
332 31 338 281 163 159 122 264 272 282 290 297 49 89 70 49 39 33 31 27 22 21 23 26 24 255 239 239 235 234 232 233 233 233 234 236 240 243 248 248 241 244 241 240 240 240 236 236 237
347 226 211 308 224 148 142 252 275 290 277 348 67 79 73 54 38 28 35 37 37 38 39 42 46 54 360 243 239 236 234 237 238 238 251 255 255 252 249 250 250 243 237 238 239 236 236 238 238
215 213 234 226 271 116 244 253 269 281 317 102 114 96 78 64 37 29 37 46 48 49 50 51 50 56 66 81 167 202 234 243 247 260 266 261 259 255 252 249 248 240 238 238 235 233 231 235 241
185 206 241 282 267 213 267 284 283 261 304 85 103 92 82 65 55 41 42 49 53 53 51 49 50 47 53 54 48 52 51 49 43 337 314 300 280 271 255 248 243 240 243 247 239 231 230 233 232
256 256 259 268 253 220 286 286 278 351 32 108 106 84 74 67 45 40 39 46 48 50 52 52 51 50 53 57 55 58 65 56 55 53 45 41 356 287 261 269 262 251 246 243 235 231 231 236 227
216 199 225 238 332 283 333 293 300 56 75 75 65 80 73 69 57 36 41 46 52 53 52 51 54 54 54 55 63 75 65 45 40 37 39 39 42 32 342 299 275 261 250 252 250 243 239 238 228
274 201 211 208 106 240 22 285 304 144 97 71 73 69 72 70 56 51 47 46 50 56 61 61 57 56 55 57 59 59 57 55 44 38 32 32 29 27 25 17 358 329 297 274 266 260 251 248 243
224 153 168 163 188 73 277 336 259 112 132 126 111 100 90 87 86 73 63 65 62 59 59 61 60 58 56 55 56 56 53 49 43 39 37 33 28 25 17 9 0 345 343 326 295 277 267 259 252
132 80 54 54 94 299 220 165 278 196 198 147 140 132 118 101 83 77 77 75 69 66 63 62 62 59 57 57 56 55 53 46 41 38 37 35 32 22 15 7 3 348 331 331 326 307 285 277 269
91 76 310 334 1 228 175 131 246 323 296 155 140 138 134 127 113 99 80 70 65 62 64 65 64 64 60 59 57 55 52 47 42 38 37 33 29 25 19 16 10 353 337 331 326 315 306 295 280
174 160 165 226 215 248 280 240 274 21 65 105 125 138 137 142 134 124 112 94 80 73 68 68 66 65 64 61 55 53 53 46 41 33 31 31 27 20 14 11 11 12 8 355 332 320 314 305 298
184 178 191 108 47 48 234 54 130 85 88 115 140 152 166 168 157 150 122 107 96 86 79 74 72 68 63 62 57 49 44 43 33 24 23 22 18 11 6 3 359 0 2 2 356 347 329 315 305
148 159 76 2 188 244 276 259 207 192 184 178 181 183 187 182 185 162 137 126 123 106 94 84 74 68 62 57 53 43 35 30 21 12 11 7 3 360 352 351 351 348 348 348 346 344 342 331 320
141 203 155 149 156 183 234 258 214 176 181 185 198 203 195 195 186 171 161 150 140 132 126 113 94 77 61 49 37 25 21 16 7 1 356 353 350 347 344 343 340 338 335 336 335 331 329 328 324
211 189 165 156 240 245 177 257 15 170 178 177 201 208 213 192 182 169 164 161 162 169 167 153 139 106 72 59 39 22 12 3 354 348 344 343 339 337 337 335 332 330 330 329 329 325 320 316 314